Voltar ao catálogo

DELTA 1 DEB

AtivoPO
NORAD 8544·DEBRIS·🇺🇸 United States

Lançado Jul 23, 1972 de Vandenberg Space Force Base

Loading…

Próximas Passagens (próximas 24 horas)

TLE

AtualizadoSource: Space-Track

Época: Sep 14, 2026, 06:47 UTC

1 08544U 72058GT  26257.28288069  .00000114  00000-0  15463-3 0  9996
2 08544  97.4270 268.5586 0839168 261.0117  89.5194 12.74269448529330

Acompanhe DELTA 1 DEB em tempo real com AllMySat

Download on the App Store